User: anonymous   Login
Location: East Fork Observatory
(32.9757°N, 94.4485°W)
Time: 16:29:42
(UTC-06:00)
Language:

AO-91 - Orbit

View from above orbital plane
View from above orbital plane
View from above satellite
View from above satellite

Ground track
Ground track

The orbit data is extracted from the following two-line orbital elements,

1 43017U 17073E   19340.33375534  .00000619  00000-0  54143-4 0  9990
2 43017  97.7247 255.0230 0256932 322.9941  35.3785 14.78730945110479
Epoch (UTC): 06 December 2019 08:00:36
Eccentricity: 0.0256932
inclination: 97.7247°
perigee height: 453 km
apogee height: 813 km
right ascension of ascending node: 255.0230°
argument of perigee: 322.9941°
revolutions per day: 14.78730945
mean anomaly at epoch: 35.3785°
orbit number at epoch: 11047

The dashed part of the orbit path shows where the satellite is in the earth's shadow,  

DLR